Date,Time,Wetness (Wet Dry or Ice),Wind Speed (m/s),Temperature (C),Humidity (%),Pressure (mb),Radiation (W/m^2)
2020-09-26,19:30:00,DRY,4.87,14.57,53.3,780.00,1.2
2020-09-26,19:35:00,DRY,5.75,14.55,54.0,780.00,1.2
2020-09-26,19:40:00,DRY,5.50,14.57,54.0,780.00,1.1
2020-09-26,19:45:00,DRY,5.80,14.60,54.0,780.00,1.2
2020-09-26,19:50:00,DRY,5.27,14.53,54.0,780.00,1.1
2020-09-26,19:55:00,DRY,5.60,14.60,54.0,780.00,1.2
2020-09-26,20:00:00,DRY,5.57,14.53,54.0,780.00,0.9
2020-09-26,20:05:00,DRY,5.80,14.50,54.0,780.00,1.1
2020-09-26,20:10:00,DRY,5.77,14.50,54.0,780.00,1.2
2020-09-26,20:15:00,DRY,5.15,14.50,54.0,780.00,1.2
2020-09-26,20:20:00,DRY,5.73,14.37,54.0,780.00,1.0
2020-09-26,20:25:00,DRY,5.00,14.30,54.0,780.00,1.1
2020-09-26,20:30:00,DRY,4.77,14.30,54.0,780.00,1.1
2020-09-26,20:35:00,DRY,6.60,14.30,54.0,780.00,1.1
2020-09-26,20:40:00,DRY,6.47,14.37,54.3,780.00,1.1
2020-09-26,20:45:00,DRY,5.45,14.40,54.5,780.00,1.1
2020-09-26,20:50:00,DRY,5.83,14.37,54.0,780.00,1.2
2020-09-26,20:55:00,DRY,6.20,14.30,55.0,780.00,1.3
2020-09-26,21:00:00,DRY,6.33,14.33,55.0,780.00,0.9
2020-09-26,21:05:00,DRY,4.80,14.40,55.0,780.00,1.4
2020-09-26,21:10:00,DRY,5.30,14.30,54.3,780.00,0.8
2020-09-26,21:15:00,DRY,5.95,14.25,54.5,780.00,1.1
2020-09-26,21:20:00,DRY,6.63,14.37,54.0,780.00,1.4
2020-09-26,21:25:00,DRY,6.40,14.10,54.0,780.00,1.1
2020-09-26,21:30:00,DRY,5.03,14.17,54.7,780.00,1.2
2020-09-26,21:35:00,DRY,4.70,14.05,55.5,780.00,1.0
2020-09-26,21:40:00,DRY,5.80,14.10,55.0,780.00,1.0
2020-09-26,21:45:00,DRY,5.95,14.10,56.0,780.00,1.2
2020-09-26,21:50:00,DRY,4.83,14.00,55.7,780.00,1.2
2020-09-26,21:55:00,DRY,5.90,14.00,56.0,780.00,1.1
2020-09-26,22:00:00,DRY,5.63,14.00,56.0,780.00,0.9
2020-09-26,22:05:00,DRY,6.35,13.95,56.5,780.00,1.3
2020-09-26,22:10:00,DRY,6.07,14.00,57.3,780.00,1.3
2020-09-26,22:15:00,DRY,6.70,14.00,56.5,780.00,1.0
2020-09-26,22:20:00,DRY,6.47,13.93,57.0,780.00,1.1
2020-09-26,22:25:00,DRY,5.35,13.95,57.0,780.00,1.0
2020-09-26,22:30:00,DRY,6.17,13.90,57.0,780.00,1.1
2020-09-26,22:35:00,DRY,5.80,13.95,57.5,780.00,1.1
2020-09-26,22:40:00,DRY,6.40,14.00,57.0,780.00,0.9
2020-09-26,22:45:00,DRY,7.50,13.90,57.5,780.00,1.0
2020-09-26,22:50:00,DRY,5.63,13.97,57.3,780.00,1.1
2020-09-26,22:55:00,DRY,6.00,13.95,57.0,780.00,1.0
2020-09-26,23:00:00,DRY,6.63,13.90,57.3,780.00,1.1
2020-09-26,23:05:00,DRY,7.30,14.00,57.5,780.00,1.2
2020-09-26,23:10:00,DRY,7.13,13.97,56.3,780.00,0.9
2020-09-26,23:15:00,DRY,6.05,13.95,56.0,780.00,0.9
2020-09-26,23:20:00,DRY,7.17,13.97,55.7,779.67,0.9
2020-09-26,23:25:00,DRY,6.75,14.15,53.5,779.00,1.4
2020-09-26,23:30:00,DRY,7.07,14.17,54.0,779.00,1.9
2020-09-26,23:35:00,DRY,5.90,14.10,55.0,779.00,1.3
2020-09-26,23:40:00,DRY,6.70,13.97,56.0,779.00,1.2
2020-09-26,23:45:00,DRY,7.00,13.95,55.5,779.00,0.9
2020-09-26,23:50:00,DRY,6.13,13.87,54.7,779.00,1.2
2020-09-26,23:55:00,DRY,7.20,13.75,54.0,779.00,1.6
2020-09-27,00:00:00,DRY,7.10,13.70,53.3,779.00,0.9
2020-09-27,00:05:00,DRY,6.40,13.70,53.5,779.00,0.9
2020-09-27,00:10:00,DRY,7.20,13.63,53.7,779.00,1.1
2020-09-27,00:15:00,DRY,7.30,13.55,54.0,779.00,1.0
2020-09-27,00:20:00,DRY,6.77,13.43,53.0,779.00,1.3
2020-09-27,00:25:00,DRY,6.55,13.15,52.0,779.00,0.9
2020-09-27,00:30:00,DRY,7.67,13.17,52.7,779.00,1.2
2020-09-27,00:35:00,DRY,6.35,13.05,53.5,779.00,1.3
2020-09-27,00:40:00,DRY,6.33,13.10,52.7,779.00,1.0
2020-09-27,00:45:00,DRY,6.80,12.95,52.5,779.00,1.0
2020-09-27,00:50:00,DRY,7.33,13.00,52.7,779.00,0.4
2020-09-27,00:55:00,DRY,7.70,12.90,50.5,779.00,1.0
2020-09-27,01:00:00,DRY,7.80,12.87,52.0,778.67,1.0
2020-09-27,01:05:00,DRY,6.45,12.95,51.5,779.00,1.2
2020-09-27,01:10:00,DRY,8.13,12.87,51.7,779.00,1.3
2020-09-27,01:15:00,DRY,6.00,12.95,51.5,779.00,1.7
2020-09-27,01:20:00,DRY,6.33,12.67,48.7,778.67,1.1
2020-09-27,01:25:00,DRY,7.65,12.70,49.5,778.00,1.0
2020-09-27,01:30:00,DRY,7.03,12.67,47.3,778.00,1.3
2020-09-27,01:35:00,DRY,8.00,12.55,47.0,778.00,1.1
2020-09-27,01:40:00,DRY,7.30,12.47,47.3,778.00,1.3
2020-09-27,01:45:00,DRY,8.45,12.55,49.0,778.00,0.9
2020-09-27,01:50:00,DRY,7.97,12.83,52.7,778.00,1.2
2020-09-27,01:55:00,DRY,7.75,12.90,50.5,778.00,1.2
2020-09-27,02:00:00,DRY,8.97,12.83,50.0,778.00,1.6
2020-09-27,02:05:00,DRY,8.80,12.85,51.0,778.00,1.2
2020-09-27,02:10:00,DRY,8.50,12.70,47.7,778.00,1.0
2020-09-27,02:15:00,DRY,7.15,12.55,47.5,778.00,1.1
2020-09-27,02:20:00,DRY,7.80,12.63,46.3,778.00,1.2
2020-09-27,02:25:00,DRY,6.55,12.55,46.5,778.00,1.3
2020-09-27,02:30:00,DRY,7.17,12.47,44.0,778.00,1.2
2020-09-27,02:35:00,DRY,7.95,12.35,43.0,778.00,0.8
2020-09-27,02:40:00,DRY,8.27,12.47,41.7,777.67,1.1
2020-09-27,02:45:00,DRY,7.60,12.45,42.5,777.00,1.2
2020-09-27,02:50:00,DRY,8.40,12.33,42.3,777.33,0.8
2020-09-27,02:55:00,DRY,8.65,12.50,43.0,777.00,1.6
2020-09-27,03:00:00,DRY,6.83,12.27,44.7,777.00,1.0
2020-09-27,03:05:00,DRY,8.70,12.20,44.5,777.00,1.2
2020-09-27,03:10:00,DRY,8.40,12.20,44.3,777.00,1.2
2020-09-27,03:15:00,DRY,9.20,12.15,44.5,777.00,1.1
2020-09-27,03:20:00,DRY,7.27,12.10,44.0,777.00,0.9
2020-09-27,03:25:00,DRY,9.65,11.95,43.5,777.00,0.9
2020-09-27,03:30:00,DRY,8.10,12.27,45.0,777.00,1.1
2020-09-27,03:35:00,DRY,8.05,12.30,43.0,777.00,1.2
2020-09-27,03:40:00,DRY,8.73,12.07,42.7,777.00,1.1
2020-09-27,03:45:00,DRY,8.10,12.20,44.5,777.00,1.0
2020-09-27,03:50:00,DRY,9.13,12.27,47.0,777.00,1.1
2020-09-27,03:55:00,DRY,9.90,12.40,47.0,777.00,1.1
2020-09-27,04:00:00,DRY,9.93,12.43,46.7,777.00,1.2
2020-09-27,04:05:00,DRY,8.25,12.45,47.0,777.00,0.9
2020-09-27,04:10:00,DRY,9.13,12.27,46.7,777.00,1.0
2020-09-27,04:15:00,DRY,8.80,12.50,47.0,777.00,1.2
2020-09-27,04:20:00,DRY,8.10,12.40,47.0,777.00,1.2
2020-09-27,04:25:00,DRY,9.20,12.50,48.5,777.00,1.1
2020-09-27,04:30:00,DRY,8.13,12.40,47.0,776.67,0.8
2020-09-27,04:35:00,DRY,8.75,12.15,47.0,777.00,0.7
2020-09-27,04:40:00,DRY,8.80,12.27,49.3,777.00,1.0
2020-09-27,04:45:00,DRY,8.10,12.20,47.5,777.00,1.2
2020-09-27,04:50:00,DRY,9.07,12.13,48.3,776.33,1.2
2020-09-27,04:55:00,DRY,7.75,12.25,47.5,776.50,1.2
2020-09-27,05:00:00,DRY,10.43,12.23,50.0,776.33,1.0
2020-09-27,05:05:00,DRY,9.50,12.35,50.0,776.00,1.1
2020-09-27,05:10:00,DRY,10.73,12.33,50.7,776.00,1.2
2020-09-27,05:15:00,DRY,9.30,12.70,51.5,776.00,1.1
2020-09-27,05:20:00,DRY,9.70,12.63,52.3,776.67,1.1
2020-09-27,05:25:00,DRY,9.40,12.65,52.0,776.00,1.2
2020-09-27,05:30:00,DRY,9.33,12.47,52.0,776.67,1.1
2020-09-27,05:35:00,DRY,9.15,12.50,52.0,776.00,1.2
2020-09-27,05:40:00,DRY,9.27,12.17,50.7,776.00,1.7
2020-09-27,05:45:00,DRY,9.70,12.05,51.0,776.00,2.1
2020-09-27,05:50:00,DRY,8.30,11.93,48.3,776.00,1.4
2020-09-27,05:55:00,DRY,9.50,12.00,48.0,776.00,1.1
2020-09-27,06:00:00,DRY,10.53,11.97,42.7,776.00,1.4
2020-09-27,06:05:00,DRY,9.25,12.05,41.0,776.00,1.1
2020-09-27,06:10:00,DRY,9.57,12.03,40.3,776.00,1.5
2020-09-27,06:15:00,DRY,9.45,11.95,41.0,776.00,1.1
2020-09-27,06:20:00,DRY,9.37,11.87,43.7,776.00,0.8
2020-09-27,06:25:00,DRY,10.20,11.95,44.5,776.00,1.0
2020-09-27,06:30:00,DRY,9.30,11.90,42.0,776.33,1.2
2020-09-27,06:35:00,DRY,10.55,11.90,37.0,776.00,1.2
2020-09-27,06:40:00,DRY,9.77,12.10,38.7,776.00,1.3
2020-09-27,06:45:00,DRY,10.00,12.20,36.0,776.00,1.4
2020-09-27,06:50:00,DRY,11.50,12.00,33.0,776.00,2.0
2020-09-27,06:55:00,DRY,9.85,11.95,38.0,776.00,3.4
2020-09-27,07:00:00,DRY,10.47,12.17,49.0,776.00,6.1
2020-09-27,07:05:00,DRY,9.15,12.00,48.0,776.00,8.9
2020-09-27,07:10:00,DRY,9.00,11.97,48.7,776.33,13.0
2020-09-27,07:15:00,DRY,9.70,11.95,48.5,776.00,16.9
2020-09-27,07:20:00,DRY,10.00,11.90,48.7,776.00,20.7
2020-09-27,07:25:00,DRY,9.40,11.95,51.5,776.50,23.7
2020-09-27,07:30:00,DRY,9.20,11.77,51.7,776.00,26.1
2020-09-27,07:35:00,DRY,11.45,11.90,54.5,776.00,28.9
2020-09-27,07:40:00,DRY,9.90,11.97,52.3,776.33,32.2
2020-09-27,07:45:00,DRY,10.05,11.90,50.5,776.00,35.0
2020-09-27,07:50:00,DRY,11.00,11.90,51.7,776.00,63.4
2020-09-27,07:55:00,DRY,9.70,12.00,51.5,776.50,205.7
2020-09-27,08:00:00,DRY,9.67,12.07,51.0,776.33,230.1
2020-09-27,08:05:00,DRY,9.75,12.10,51.0,776.50,252.2
2020-09-27,08:10:00,DRY,10.03,12.10,47.0,776.67,279.1
2020-09-27,08:15:00,DRY,10.85,12.30,48.0,776.50,302.7
2020-09-27,08:20:00,DRY,10.43,12.20,42.7,776.00,324.3
2020-09-27,08:25:00,DRY,11.45,12.40,48.0,776.00,349.2
2020-09-27,08:30:00,DRY,10.33,12.53,44.3,776.00,373.7
2020-09-27,08:35:00,DRY,12.45,12.65,46.5,776.00,397.4
2020-09-27,08:40:00,DRY,9.33,12.60,45.0,776.33,416.6
2020-09-27,08:45:00,DRY,10.10,12.65,45.0,776.50,436.5
2020-09-27,08:50:00,DRY,9.33,12.80,44.3,776.67,458.5
2020-09-27,08:55:00,DRY,11.00,12.75,43.5,776.00,479.4
2020-09-27,09:00:00,DRY,9.93,13.10,43.3,776.33,503.6
2020-09-27,09:05:00,DRY,9.95,13.00,43.5,777.00,524.0
2020-09-27,09:10:00,DRY,9.67,13.07,42.3,776.67,544.7
2020-09-27,09:15:00,DRY,9.65,13.10,41.5,776.50,566.0
2020-09-27,09:20:00,DRY,10.57,13.17,39.0,776.33,586.5
2020-09-27,09:25:00,DRY,10.50,13.30,36.0,776.50,608.6
2020-09-27,09:30:00,DRY,10.50,13.27,37.0,776.67,626.5
2020-09-27,09:35:00,DRY,9.85,13.40,36.5,777.00,644.0
2020-09-27,09:40:00,DRY,9.57,13.63,33.7,776.67,664.8
2020-09-27,09:45:00,DRY,9.60,13.90,32.5,777.00,684.3
2020-09-27,09:50:00,DRY,10.57,14.00,31.0,776.67,702.8
2020-09-27,09:55:00,DRY,10.65,14.05,30.0,776.50,721.5
2020-09-27,10:00:00,DRY,9.07,14.20,29.3,776.67,739.1
2020-09-27,10:05:00,DRY,11.10,14.40,27.5,777.00,755.5
2020-09-27,10:10:00,DRY,11.60,14.27,28.0,777.00,772.5
2020-09-27,10:15:00,DRY,8.35,14.50,31.0,777.00,788.6
2020-09-27,10:20:00,DRY,10.13,14.33,32.3,777.00,804.3
2020-09-27,10:25:00,DRY,11.00,14.35,33.5,777.00,819.2
2020-09-27,10:30:00,DRY,9.60,14.37,33.3,777.00,833.5
2020-09-27,10:35:00,DRY,9.30,14.45,33.5,777.00,848.0
2020-09-27,10:40:00,DRY,7.63,14.47,33.3,777.00,861.9
2020-09-27,10:45:00,DRY,8.75,14.55,35.5,777.00,876.5
2020-09-27,10:50:00,DRY,9.30,14.57,34.3,777.00,889.6
2020-09-27,10:55:00,DRY,9.25,14.75,34.0,777.00,901.6
2020-09-27,11:00:00,DRY,9.30,14.70,36.3,777.00,914.2
2020-09-27,11:05:00,DRY,7.90,14.65,34.5,777.00,925.8
2020-09-27,11:10:00,DRY,8.30,15.00,35.3,777.00,936.5
2020-09-27,11:15:00,DRY,8.05,15.00,34.5,777.00,946.5
2020-09-27,11:20:00,DRY,9.20,15.07,33.7,777.00,956.5
2020-09-27,11:25:00,DRY,9.20,14.95,35.0,777.00,966.6
2020-09-27,11:30:00,DRY,7.73,15.23,32.0,777.00,976.2
2020-09-27,11:35:00,DRY,8.80,15.15,33.0,777.00,984.5
2020-09-27,11:40:00,DRY,9.23,15.33,33.7,777.00,993.2
2020-09-27,11:45:00,DRY,9.45,15.30,32.5,776.50,1001.1
2020-09-27,11:50:00,DRY,9.47,15.40,32.3,777.00,1008.3
2020-09-27,11:55:00,DRY,8.55,15.35,31.0,777.00,1015.4
2020-09-27,12:00:00,DRY,10.77,15.23,33.7,776.00,1022.1
2020-09-27,12:05:00,DRY,9.15,15.15,34.5,776.00,1028.6
2020-09-27,12:10:00,DRY,9.47,15.23,34.0,776.00,1034.5
2020-09-27,12:15:00,DRY,9.15,15.25,35.0,776.00,1039.8
2020-09-27,12:20:00,DRY,9.20,15.07,35.3,776.00,1044.8
2020-09-27,12:25:00,DRY,9.30,14.95,33.0,776.00,1048.7
2020-09-27,12:30:00,DRY,10.83,14.97,33.3,776.00,1051.3
2020-09-27,12:35:00,DRY,10.60,15.25,33.0,776.00,1054.1
2020-09-27,12:40:00,DRY,8.97,15.03,33.7,776.00,1056.7
2020-09-27,12:45:00,DRY,9.90,15.10,34.0,776.00,1058.2
2020-09-27,12:50:00,DRY,10.20,15.07,32.3,776.00,1059.8
2020-09-27,12:55:00,DRY,8.85,14.90,31.0,776.00,1060.5
2020-09-27,13:00:00,DRY,9.13,14.97,31.7,776.00,1060.6
2020-09-27,13:05:00,DRY,10.90,14.75,32.0,776.00,1060.2
2020-09-27,13:10:00,DRY,10.27,14.67,32.3,776.00,1060.2
2020-09-27,13:15:00,DRY,9.70,15.00,29.0,776.00,1060.3
2020-09-27,13:20:00,DRY,9.00,14.83,27.7,776.00,1057.1
2020-09-27,13:25:00,DRY,10.85,14.95,26.5,776.00,1054.5
2020-09-27,13:30:00,DRY,11.80,14.90,27.0,776.00,1053.8
2020-09-27,13:35:00,DRY,11.90,15.00,28.0,775.00,1048.8
2020-09-27,13:40:00,DRY,9.70,14.83,27.7,775.33,1044.7
2020-09-27,13:45:00,DRY,10.70,15.00,28.0,775.00,1040.0
2020-09-27,13:50:00,DRY,10.97,14.80,27.0,775.00,1035.4
2020-09-27,13:55:00,DRY,12.40,14.70,28.5,775.00,1029.8
2020-09-27,14:00:00,DRY,9.93,14.83,27.0,775.67,1024.2
2020-09-27,14:05:00,DRY,11.60,14.70,27.5,775.00,1019.0
2020-09-27,14:10:00,DRY,10.50,14.77,26.0,775.00,1011.7
2020-09-27,14:15:00,DRY,13.40,14.85,27.0,775.00,1004.5
2020-09-27,14:20:00,DRY,10.53,14.77,28.0,775.00,996.8
2020-09-27,14:25:00,DRY,11.00,14.90,25.5,775.00,988.0
2020-09-27,14:30:00,DRY,10.03,14.80,25.7,775.00,978.9
2020-09-27,14:35:00,DRY,9.95,14.85,24.5,775.00,968.9
2020-09-27,14:40:00,DRY,11.27,14.87,24.3,775.00,959.8
2020-09-27,14:45:00,DRY,10.20,15.00,25.0,775.00,949.2
2020-09-27,14:50:00,DRY,10.47,14.90,24.3,775.00,938.5
2020-09-27,14:55:00,DRY,12.35,15.00,25.0,775.00,927.0
2020-09-27,15:00:00,DRY,12.37,14.83,24.3,775.00,915.2
2020-09-27,15:05:00,DRY,13.85,14.85,23.0,775.00,902.4
2020-09-27,15:10:00,DRY,11.07,14.93,22.7,775.00,889.3
2020-09-27,15:15:00,DRY,12.60,14.95,21.5,775.00,876.2
2020-09-27,15:20:00,DRY,11.03,14.80,22.3,775.00,861.9
2020-09-27,15:25:00,DRY,13.40,14.60,20.0,775.00,851.3
2020-09-27,15:30:00,DRY,13.10,14.90,20.3,775.00,833.2
2020-09-27,15:35:00,DRY,12.10,14.60,21.5,775.00,818.4
2020-09-27,15:40:00,DRY,12.43,14.83,20.0,775.00,802.7
2020-09-27,15:45:00,DRY,10.90,14.70,21.5,775.00,786.3
2020-09-27,15:50:00,DRY,11.37,14.80,20.3,775.00,770.1
2020-09-27,15:55:00,DRY,12.30,14.85,19.5,775.00,753.5
2020-09-27,16:00:00,DRY,11.80,14.70,20.3,775.00,736.3
2020-09-27,16:05:00,DRY,11.05,14.70,20.0,775.00,718.5
2020-09-27,16:10:00,DRY,10.87,14.63,20.3,775.00,701.5
2020-09-27,16:15:00,DRY,11.10,14.45,20.0,775.00,682.1
2020-09-27,16:20:00,DRY,9.23,14.47,21.0,775.00,663.3
2020-09-27,16:25:00,DRY,9.45,14.40,22.0,775.00,644.5
2020-09-27,16:30:00,DRY,10.17,14.30,22.7,775.00,625.0
2020-09-27,16:35:00,DRY,9.20,14.15,22.5,775.00,604.8
2020-09-27,16:40:00,DRY,8.23,14.00,24.0,775.00,584.7
2020-09-27,16:45:00,DRY,9.75,13.85,25.0,775.00,565.7
2020-09-27,16:50:00,DRY,9.03,13.87,23.0,775.00,544.7
2020-09-27,16:55:00,DRY,9.45,13.75,22.5,775.00,523.1
2020-09-27,17:00:00,DRY,8.83,13.77,23.3,775.00,502.3
2020-09-27,17:05:00,DRY,8.60,13.70,23.0,775.00,480.8
2020-09-27,17:10:00,DRY,9.83,13.80,24.0,775.00,459.7
2020-09-27,17:15:00,DRY,9.75,13.80,24.0,775.00,438.1
2020-09-27,17:20:00,DRY,7.97,13.80,24.7,775.00,416.0
2020-09-27,17:25:00,DRY,9.30,13.75,25.0,775.00,393.1
2020-09-27,17:30:00,DRY,10.20,13.63,26.0,775.00,371.2
2020-09-27,17:35:00,DRY,9.70,13.75,25.5,775.00,348.5
2020-09-27,17:40:00,DRY,10.17,13.57,26.3,775.00,325.7
2020-09-27,17:45:00,DRY,10.25,13.35,27.0,775.00,303.5
2020-09-27,17:50:00,DRY,10.17,13.40,26.3,775.00,281.2
2020-09-27,17:55:00,DRY,9.95,13.25,26.5,775.00,259.1
2020-09-27,18:00:00,DRY,10.03,13.30,26.3,775.00,236.5
2020-09-27,18:05:00,DRY,9.80,13.10,26.0,775.00,214.4
2020-09-27,18:10:00,DRY,10.53,13.17,25.3,775.00,193.5
2020-09-27,18:15:00,DRY,8.55,13.15,25.5,775.00,172.7
2020-09-27,18:20:00,DRY,9.10,13.20,25.0,775.00,42.9
2020-09-27,18:25:00,DRY,10.10,12.80,26.0,775.00,28.6
2020-09-27,18:30:00,DRY,11.13,12.80,25.7,775.00,26.8
2020-09-27,18:35:00,DRY,11.05,12.95,24.5,775.00,24.4
2020-09-27,18:40:00,DRY,8.20,12.73,24.3,775.00,22.1
2020-09-27,18:45:00,DRY,11.90,12.65,24.0,775.00,19.5
2020-09-27,18:50:00,DRY,10.13,12.63,24.0,775.00,16.3
2020-09-27,18:55:00,DRY,10.20,12.65,24.0,775.00,12.9
2020-09-27,19:00:00,DRY,9.27,12.43,24.7,775.00,9.1
2020-09-27,19:05:00,DRY,9.05,12.35,24.5,775.00,5.5
2020-09-27,19:10:00,DRY,10.10,12.47,24.0,775.00,3.5
2020-09-27,19:15:00,DRY,8.95,12.45,24.0,775.00,2.4
2020-09-27,19:20:00,DRY,10.70,12.47,24.0,775.00,1.5
2020-09-27,19:25:00,DRY,6.70,12.10,25.0,775.00,0.8
2020-09-27,19:30:00,DRY,9.57,12.43,24.0,775.00,1.4
2020-09-27,19:35:00,DRY,10.70,12.35,24.0,775.00,1.4
2020-09-27,19:40:00,DRY,8.87,12.57,23.3,775.00,1.2
2020-09-27,19:45:00,DRY,9.30,12.70,23.0,775.00,1.4
2020-09-27,19:50:00,DRY,7.50,12.60,23.0,775.00,1.0
2020-09-27,19:55:00,DRY,9.25,12.30,23.5,775.00,1.1
2020-09-27,20:00:00,DRY,8.53,12.17,24.3,775.67,1.3
2020-09-27,20:05:00,DRY,12.05,12.20,23.5,775.50,1.2
2020-09-27,20:10:00,DRY,9.37,12.23,23.3,775.33,1.5
2020-09-27,20:15:00,DRY,8.80,12.25,23.0,775.50,1.2
2020-09-27,20:20:00,DRY,9.23,12.50,22.7,775.67,1.3
2020-09-27,20:25:00,DRY,8.20,12.55,22.0,776.00,1.1
2020-09-27,20:30:00,DRY,9.23,12.53,22.0,776.00,1.6
2020-09-27,20:35:00,DRY,9.30,12.40,22.5,776.00,1.6
2020-09-27,20:40:00,DRY,9.50,12.73,21.7,776.00,1.3
2020-09-27,20:45:00,DRY,9.60,12.70,21.5,776.00,1.2
2020-09-27,20:50:00,DRY,9.13,12.70,21.7,776.00,1.1
2020-09-27,20:55:00,DRY,10.20,12.85,21.0,776.00,1.2
2020-09-27,21:00:00,DRY,9.53,12.73,21.0,776.00,1.2
2020-09-27,21:05:00,DRY,8.90,12.75,21.5,776.00,1.1
2020-09-27,21:10:00,DRY,9.20,12.73,21.7,776.00,1.0
2020-09-27,21:15:00,DRY,9.40,12.80,21.0,776.00,0.9
2020-09-27,21:20:00,DRY,10.63,12.80,21.7,776.00,1.3
2020-09-27,21:25:00,DRY,9.65,12.80,22.0,776.00,1.4
2020-09-27,21:30:00,DRY,10.50,12.67,22.0,776.00,1.3
2020-09-27,21:35:00,DRY,9.05,12.45,22.0,776.00,1.1
2020-09-27,21:40:00,DRY,9.40,12.37,22.7,776.00,1.1
2020-09-27,21:45:00,DRY,10.10,12.25,23.5,776.00,1.2
2020-09-27,21:50:00,DRY,9.43,12.17,23.7,776.00,1.3
2020-09-27,21:55:00,DRY,9.20,12.00,24.0,776.00,1.1
2020-09-27,22:00:00,DRY,8.17,12.10,23.7,776.00,0.7
2020-09-27,22:05:00,DRY,9.30,11.85,24.5,776.00,1.6
2020-09-27,22:10:00,DRY,9.80,12.00,24.3,776.00,1.8
2020-09-27,22:15:00,DRY,9.90,12.30,23.5,776.00,1.3
2020-09-27,22:20:00,DRY,10.07,12.03,24.3,776.00,1.3
2020-09-27,22:25:00,DRY,9.00,12.05,24.5,776.00,1.1
2020-09-27,22:30:00,DRY,10.33,12.00,24.0,776.00,1.1
2020-09-27,22:35:00,DRY,8.65,12.00,24.5,776.00,1.1
2020-09-27,22:40:00,DRY,7.65,11.55,27.0,776.00,0.8
2020-09-27,22:45:00,DRY,10.05,11.75,25.0,776.00,1.1
2020-09-27,22:50:00,DRY,7.90,11.70,26.0,776.00,1.2
2020-09-27,22:55:00,DRY,8.55,11.65,26.5,776.00,1.5
2020-09-27,23:00:00,DRY,8.03,11.53,27.0,776.00,1.6
2020-09-27,23:05:00,DRY,9.00,11.60,26.5,776.00,0.8
2020-09-27,23:10:00,DRY,7.70,11.47,27.3,776.00,0.7
2020-09-27,23:15:00,DRY,9.20,11.35,28.5,776.00,1.0
2020-09-27,23:20:00,DRY,10.50,11.70,26.3,776.00,1.3
2020-09-27,23:25:00,DRY,10.10,11.95,25.5,776.00,1.1
2020-09-27,23:30:00,DRY,8.77,11.80,25.3,776.00,1.1
2020-09-27,23:35:00,DRY,7.70,11.55,28.0,776.00,1.1
2020-09-27,23:40:00,DRY,9.57,11.53,26.3,776.00,1.1
2020-09-27,23:45:00,DRY,9.30,11.75,25.5,776.00,1.6
2020-09-27,23:50:00,DRY,10.00,11.83,24.7,776.00,0.9
2020-09-27,23:55:00,DRY,8.45,12.25,23.5,776.00,1.0
2020-09-28,00:00:00,DRY,8.73,11.90,24.7,776.00,1.1
2020-09-28,00:05:00,DRY,8.45,11.70,25.0,776.00,1.3
2020-09-28,00:10:00,DRY,8.67,12.17,23.3,776.00,1.0
2020-09-28,00:15:00,DRY,9.60,12.15,23.0,776.00,2.0
2020-09-28,00:20:00,DRY,9.73,12.23,23.3,776.00,1.4
2020-09-28,00:25:00,DRY,9.30,12.20,23.5,776.00,1.0
2020-09-28,00:30:00,DRY,9.37,12.33,23.0,776.00,1.1
2020-09-28,00:35:00,DRY,8.05,12.15,23.5,776.00,1.2
2020-09-28,00:40:00,DRY,9.27,12.47,22.7,776.00,1.3
2020-09-28,00:45:00,DRY,7.45,12.55,22.5,776.00,1.2
2020-09-28,00:50:00,DRY,8.33,12.57,22.7,775.67,1.2
2020-09-28,00:55:00,DRY,6.45,12.50,23.0,776.00,1.2
2020-09-28,01:00:00,DRY,7.93,12.30,23.3,775.67,0.9
2020-09-28,01:05:00,DRY,8.55,12.65,22.5,775.50,1.7
2020-09-28,01:10:00,DRY,8.57,12.90,22.0,775.33,0.9
2020-09-28,01:15:00,DRY,9.20,13.00,22.0,776.00,1.1
2020-09-28,01:20:00,DRY,9.37,13.13,21.3,775.33,1.1
2020-09-28,01:25:00,DRY,9.30,13.30,21.0,775.50,1.2
2020-09-28,01:30:00,DRY,9.47,13.50,19.7,775.00,0.9
2020-09-28,01:35:00,DRY,8.40,13.50,19.5,775.00,1.5
2020-09-28,01:40:00,DRY,7.50,13.03,21.3,775.00,1.2
2020-09-28,01:45:00,DRY,8.10,12.80,22.0,775.00,1.2
2020-09-28,01:50:00,DRY,7.93,12.90,21.7,775.00,1.6
2020-09-28,01:55:00,DRY,7.70,13.10,21.0,775.00,1.1
2020-09-28,02:00:00,DRY,7.63,12.83,22.0,775.00,1.0
2020-09-28,02:05:00,DRY,7.65,12.85,22.0,775.00,0.9
2020-09-28,02:10:00,DRY,6.83,12.80,22.0,775.00,0.9
2020-09-28,02:15:00,DRY,7.60,12.80,22.0,775.00,1.2
2020-09-28,02:20:00,DRY,8.33,13.57,18.3,775.00,1.2
2020-09-28,02:25:00,DRY,10.55,13.55,18.5,775.00,1.2
2020-09-28,02:30:00,DRY,9.10,13.87,16.3,775.00,1.2
2020-09-28,02:35:00,DRY,10.75,14.15,14.0,775.00,1.4
2020-09-28,02:40:00,DRY,10.17,14.13,14.7,775.00,1.2
2020-09-28,02:45:00,DRY,6.50,14.30,13.5,775.00,0.8
2020-09-28,02:50:00,DRY,7.87,13.33,19.3,775.00,0.9
2020-09-28,02:55:00,DRY,8.30,13.55,18.0,775.00,1.1
2020-09-28,03:00:00,DRY,9.90,13.90,14.7,775.00,1.1
2020-09-28,03:05:00,DRY,8.80,14.20,14.0,775.00,1.1
2020-09-28,03:10:00,DRY,8.43,13.60,18.3,775.00,1.2
2020-09-28,03:15:00,DRY,7.80,12.85,21.5,774.50,1.2
2020-09-28,03:20:00,DRY,7.57,13.23,19.7,774.00,1.0
2020-09-28,03:25:00,DRY,7.50,13.00,21.0,774.00,1.3
2020-09-28,03:30:00,DRY,8.07,13.47,19.0,774.00,0.9
2020-09-28,03:35:00,DRY,9.25,13.35,18.0,774.00,0.9
2020-09-28,03:40:00,DRY,8.67,13.23,19.7,774.00,1.0
2020-09-28,03:45:00,DRY,8.75,13.45,19.0,774.00,1.2
2020-09-28,03:50:00,DRY,9.47,13.10,20.3,774.00,1.4
2020-09-28,03:55:00,DRY,9.35,12.90,21.5,774.00,1.9
2020-09-28,04:00:00,DRY,9.40,13.03,21.0,774.00,1.3
2020-09-28,04:05:00,DRY,8.80,12.95,21.0,774.00,1.4
2020-09-28,04:10:00,DRY,10.03,12.97,20.3,774.00,0.8
2020-09-28,04:15:00,DRY,8.70,13.05,19.5,774.00,1.1
2020-09-28,04:20:00,DRY,9.17,13.13,19.3,774.00,1.1
2020-09-28,04:25:00,DRY,8.45,13.10,20.0,774.00,1.6
2020-09-28,04:30:00,DRY,8.47,13.03,18.3,774.00,1.1
2020-09-28,04:35:00,DRY,8.35,13.55,16.0,774.00,1.1
2020-09-28,04:40:00,DRY,8.40,13.20,19.7,774.00,1.3
2020-09-28,04:45:00,DRY,9.65,13.10,18.0,774.00,0.9
2020-09-28,04:50:00,DRY,9.30,13.10,18.7,774.00,0.8
2020-09-28,04:55:00,DRY,8.70,13.10,18.5,774.00,1.2
2020-09-28,05:00:00,DRY,9.87,13.00,18.7,774.00,1.2
2020-09-28,05:05:00,DRY,8.75,13.10,17.5,774.00,1.0
2020-09-28,05:10:00,DRY,8.87,12.73,18.7,774.00,0.6
2020-09-28,05:15:00,DRY,9.35,12.80,19.5,774.00,1.2
2020-09-28,05:20:00,DRY,8.93,12.57,20.3,774.00,1.2
2020-09-28,05:25:00,DRY,9.60,12.35,22.0,774.00,1.2
2020-09-28,05:30:00,DRY,9.17,12.43,21.7,774.00,1.1
2020-09-28,05:35:00,DRY,9.10,12.35,22.5,774.00,1.7
2020-09-28,05:40:00,DRY,9.57,12.27,22.3,774.00,1.1
2020-09-28,05:45:00,DRY,8.95,11.95,24.0,774.00,1.2
2020-09-28,05:50:00,DRY,8.63,11.73,24.7,774.00,0.7
2020-09-28,05:55:00,DRY,10.20,11.90,24.0,774.00,1.2
2020-09-28,06:00:00,DRY,9.87,11.77,24.3,774.00,1.1
2020-09-28,06:05:00,DRY,9.25,11.60,25.5,774.00,1.3
2020-09-28,06:10:00,DRY,9.53,11.57,26.0,774.00,1.0
2020-09-28,06:15:00,DRY,7.75,11.35,27.5,774.00,1.2
2020-09-28,06:20:00,DRY,8.17,11.47,25.7,774.00,1.1
2020-09-28,06:25:00,DRY,8.10,11.70,25.0,774.00,1.1
2020-09-28,06:30:00,DRY,7.50,11.57,26.3,774.00,0.9
2020-09-28,06:35:00,DRY,6.60,11.15,28.0,774.00,1.0
2020-09-28,06:40:00,DRY,8.27,10.90,30.0,774.00,1.2
2020-09-28,06:45:00,DRY,8.40,11.35,28.0,774.00,1.6
2020-09-28,06:50:00,DRY,8.50,10.90,30.3,774.00,2.1
2020-09-28,06:55:00,DRY,8.60,10.85,29.0,774.00,3.5
2020-09-28,07:00:00,DRY,9.27,11.30,26.0,774.00,5.4
2020-09-28,07:05:00,DRY,9.00,11.55,26.5,774.00,8.0
2020-09-28,07:10:00,DRY,8.90,11.53,26.0,774.00,11.1
2020-09-28,07:15:00,DRY,9.65,11.65,25.0,774.00,14.4
2020-09-28,07:20:00,DRY,9.27,11.27,27.3,774.00,17.2
2020-09-28,07:25:00,DRY,9.60,11.50,25.5,774.00,19.8
2020-09-28,07:30:00,DRY,9.50,11.17,28.3,774.00,22.6
2020-09-28,07:35:00,DRY,10.00,11.50,24.5,774.00,25.0
2020-09-28,07:40:00,DRY,10.00,11.30,28.3,774.00,27.3
2020-09-28,07:45:00,DRY,9.95,11.40,29.0,774.00,28.9
2020-09-28,07:50:00,DRY,9.10,11.10,30.3,774.00,114.6
2020-09-28,07:55:00,DRY,9.40,11.20,30.0,774.00,215.6
2020-09-28,08:00:00,DRY,9.30,11.37,27.7,774.00,239.5
2020-09-28,08:05:00,DRY,10.10,11.85,25.5,774.00,261.9
2020-09-28,08:10:00,DRY,10.13,12.00,25.3,774.00,284.4
2020-09-28,08:15:00,DRY,9.90,12.10,25.0,774.00,306.6
2020-09-28,08:20:00,DRY,9.40,12.20,25.0,774.00,329.5
2020-09-28,08:25:00,DRY,9.55,12.25,26.5,774.00,352.8
2020-09-28,08:30:00,DRY,10.30,12.37,24.0,774.00,375.2
2020-09-28,08:35:00,DRY,9.65,12.45,24.5,774.00,397.9
2020-09-28,08:40:00,DRY,9.57,12.70,27.7,774.33,420.0
2020-09-28,08:45:00,DRY,9.75,12.65,27.0,774.00,441.8
2020-09-28,08:50:00,DRY,10.07,12.87,29.3,774.33,463.8
2020-09-28,08:55:00,DRY,8.95,13.05,26.5,774.50,484.1
2020-09-28,09:00:00,DRY,8.97,12.87,28.3,775.00,505.8
2020-09-28,09:05:00,DRY,7.85,12.85,29.0,775.00,526.0
2020-09-28,09:10:00,DRY,9.40,13.03,28.0,774.67,546.7
2020-09-28,09:15:00,DRY,7.45,13.00,28.0,775.00,567.2
2020-09-28,09:20:00,DRY,7.63,13.23,27.7,775.00,587.9
2020-09-28,09:25:00,DRY,6.45,13.35,28.5,775.00,607.0
2020-09-28,09:30:00,DRY,8.53,13.20,29.3,775.00,626.5
2020-09-28,09:35:00,DRY,8.10,13.40,29.0,775.00,645.5
2020-09-28,09:40:00,DRY,7.70,13.40,29.3,775.00,663.8